Theta_e
313 316 317 317 318 320 322 325 325 327 327 329 331 331 330 331 330 331 332 331 331 332 335 332 329 330 334 335 336 338 342 344 351 350 349 347 343 337 335 333 333 334 335 335
314 317 318 316 316 317 318 321 324 326 326 327 328 330 331 331 331 331 332 332 332 332 332 334 333 331 338 337 339 343 345 346 350 349 347 344 339 335 335 333 333 334 334 334
315 315 316 317 317 318 319 320 324 324 324 325 327 329 331 330 330 330 330 330 330 331 330 331 333 341 339 340 341 342 342 345 348 346 343 339 335 335 334 334 334 334 334 333
313 315 314 317 318 318 321 319 320 322 324 327 326 330 332 331 330 329 329 330 331 331 331 332 335 345 342 341 340 341 344 346 345 341 339 336 335 335 334 333 333 335 336 334
308 313 315 315 318 318 319 319 320 321 323 326 325 329 329 328 327 328 329 330 331 332 332 333 334 344 340 340 341 342 345 344 342 337 335 336 336 334 333 332 333 333 335 334
309 309 311 316 315 317 319 319 319 321 323 327 326 328 328 328 328 328 330 331 331 331 331 332 341 340 340 340 341 343 342 342 337 338 336 334 333 335 334 332 335 334 335 336
313 310 310 311 315 316 318 323 323 324 324 326 324 326 328 328 327 329 331 331 331 331 332 342 342 341 340 340 341 342 341 340 338 337 335 336 335 335 336 336 334 334 335 335
319 321 311 312 314 317 318 322 323 324 325 325 324 327 327 328 328 329 327 330 330 334 340 341 341 340 339 340 340 339 340 340 337 336 334 335 335 335 336 335 334 332 333 333
317 318 316 311 314 316 318 319 321 324 324 324 326 327 328 328 329 329 327 330 336 338 341 341 340 339 339 339 339 339 339 338 336 335 335 335 335 335 334 336 334 333 333 331
312 315 314 317 313 314 318 319 321 324 326 329 327 328 329 331 332 330 328 333 339 341 340 339 339 340 338 339 339 338 337 336 335 333 335 334 334 335 334 333 332 331 332 331
311 314 314 316 319 314 318 319 320 324 324 327 329 328 335 333 330 332 333 332 341 340 339 339 339 339 338 338 338 338 336 335 333 335 334 333 333 335 333 331 332 331 331 329
313 315 318 317 319 313 317 319 321 324 326 326 327 329 332 333 330 333 333 336 340 339 338 338 338 338 337 338 337 337 334 332 334 333 334 333 335 335 334 332 331 330 329 329
315 319 320 319 320 321 318 319 322 326 329 329 327 329 330 329 332 331 337 339 339 339 338 338 338 338 338 337 337 335 333 331 332 332 333 333 335 336 334 332 329 330 330 328
313 316 318 322 324 324 324 319 320 325 326 327 328 329 330 330 331 334 339 340 339 338 338 337 338 338 338 337 335 332 330 331 331 332 334 335 337 334 333 331 330 330 329 328
314 318 318 315 318 323 325 325 319 322 325 327 328 328 328 332 333 338 339 338 338 337 337 338 338 338 338 337 333 330 329 330 330 333 336 336 335 333 332 332 329 330 329 330
315 319 317 318 315 318 323 324 323 321 323 326 327 329 332 333 333 336 338 337 337 337 337 337 337 338 338 335 331 329 330 329 330 335 336 334 332 333 332 332 331 331 331 330
313 316 320 319 315 320 325 324 323 322 325 327 328 330 332 330 331 335 337 337 337 337 336 337 337 338 337 333 330 330 330 328 329 334 334 333 333 333 331 331 331 331 331 330
312 314 319 323 322 324 322 323 323 323 326 326 327 330 330 330 330 331 332 334 337 336 337 337 337 339 336 331 329 329 329 328 329 334 332 332 332 331 332 332 332 331 330 330
311 313 319 324 325 322 324 328 327 327 330 329 329 328 328 327 333 335 332 331 334 338 338 337 337 337 335 331 329 328 328 328 330 332 332 331 332 332 332 331 332 331 331 331
312 314 319 322 324 337 330 326 325 326 333 328 329 330 329 328 331 334 331 330 333 335 339 338 336 337 335 331 328 328 328 328 330 331 332 332 332 332 334 335 334 333 333 334
316 319 320 320 324 324 322 320 325 332 333 327 328 328 329 331 331 329 329 331 332 334 337 337 337 338 335 331 328 329 328 328 329 331 332 333 333 333 334 335 335 335 334 333
320 322 321 322 323 326 316 321 327 324 327 325 325 326 327 328 329 330 330 331 331 333 335 337 338 339 334 331 329 329 330 327 328 331 332 334 335 334 335 335 336 335 334 333
319 317 319 321 318 313 317 318 318 320 323 323 323 324 325 328 329 330 331 332 332 332 334 336 338 339 335 331 329 330 330 327 328 330 334 335 333 336 335 335 335 335 334 335
314 313 317 318 315 315 317 317 317 318 320 321 322 323 324 326 328 330 332 334 333 334 333 335 338 340 337 332 330 330 329 327 328 330 335 334 333 336 335 333 335 335 335 335
314 314 315 316 314 316 316 316 315 317 318 319 321 322 323 324 325 328 330 333 336 334 334 334 338 339 338 333 331 329 328 327 328 330 334 335 334 335 334 332 331 331 330 332
314 314 316 317 314 315 315 315 315 317 318 319 319 321 323 323 324 326 327 329 333 335 335 334 336 339 337 333 331 329 328 327 329 330 333 334 334 335 333 332 326 327 328 325
Wind_Speed
22 17 25 43 30 30 28 32 32 29 28 28 25 27 30 22 21 22 19 15 18 19 15 13 15 22 21 8 6 9 15 19 28 23 22 19 18 17 16 17 16 14 12 11
20 29 39 22 31 33 33 31 31 28 26 24 23 26 26 22 21 19 20 17 17 17 16 14 13 18 11 10 7 9 16 22 23 21 21 20 18 18 19 17 16 16 12 12
24 37 23 29 31 29 32 32 27 30 25 26 23 26 25 24 24 22 18 17 17 18 18 19 14 7 14 13 12 12 14 18 21 18 20 16 20 16 19 13 9 14 13 11
24 26 32 31 33 31 28 28 28 27 23 18 21 20 24 18 21 19 18 20 17 19 20 20 16 13 16 15 14 14 16 21 20 20 19 16 14 8 11 16 11 8 8 5
34 24 27 32 36 29 34 24 26 27 24 21 25 15 23 16 17 16 15 16 15 15 13 13 9 16 19 20 18 18 19 19 19 21 18 16 14 15 7 4 4 2 1 2
29 27 28 29 28 31 26 27 27 25 18 17 26 20 25 18 17 18 19 17 14 16 15 11 17 22 20 20 20 20 20 18 20 14 17 17 12 4 6 6 5 1 2 5
24 26 29 30 28 29 31 21 16 17 16 22 18 20 22 19 19 21 17 14 11 8 12 19 18 15 17 20 21 21 20 20 18 14 14 9 9 4 3 3 3 3 3 4
12 14 27 29 32 26 30 25 15 24 15 20 23 22 19 19 22 15 8 8 6 9 14 16 14 14 18 21 22 22 21 20 18 16 14 11 10 8 5 3 4 5 3 4
9 15 24 29 28 28 26 27 28 22 21 16 16 20 29 23 18 13 7 10 8 10 13 14 15 14 20 22 22 23 21 20 18 16 14 12 8 9 7 4 3 6 7 8
7 17 21 25 28 33 28 22 25 17 23 21 20 19 9 14 18 12 9 11 14 14 14 14 14 15 21 22 22 22 21 19 18 17 14 13 9 5 6 3 6 7 5 9
13 12 24 21 24 28 24 23 26 18 19 16 14 13 7 9 7 11 12 14 17 15 15 15 15 18 21 22 22 21 20 18 18 17 13 16 11 8 6 5 6 9 5 6
16 7 17 23 27 26 29 25 23 15 24 17 14 15 7 8 8 12 15 18 17 16 16 16 16 15 20 20 21 19 19 18 17 15 17 15 12 8 7 8 8 9 9 7
6 7 9 21 18 21 26 28 25 21 13 19 17 14 6 8 13 13 16 18 16 17 18 17 16 15 14 19 19 19 18 18 16 15 19 18 10 9 8 9 10 9 9 7
2 7 16 11 9 16 13 29 31 24 19 18 19 3 11 13 11 12 16 17 17 17 17 16 15 14 14 19 19 18 17 17 16 14 23 17 11 8 11 10 8 5 8 7
3 7 17 19 10 14 22 27 31 28 24 21 21 10 17 14 12 15 15 16 17 17 16 15 14 14 13 16 18 18 17 17 15 15 20 15 13 12 13 12 9 5 8 4
7 4 18 17 12 15 24 27 23 30 27 27 26 14 12 16 14 14 13 17 16 16 16 16 15 15 14 16 17 17 17 17 14 23 18 17 16 17 15 12 10 7 6 10
12 7 7 12 7 9 17 23 22 26 24 27 18 10 22 14 11 15 14 15 14 15 15 15 14 13 12 17 18 17 17 17 15 22 17 15 15 18 15 15 14 12 10 8
14 11 3 4 10 5 10 14 22 24 23 22 8 13 17 17 15 17 17 13 5 15 14 14 12 13 19 19 19 18 18 17 16 21 21 16 15 14 19 17 15 14 10 10
11 8 4 2 4 15 11 12 12 11 7 19 18 19 17 15 21 16 13 12 10 9 13 13 17 20 20 20 21 18 18 17 17 16 20 16 20 17 12 13 13 11 11 11
10 6 4 1 3 5 8 20 28 16 10 16 15 16 12 6 10 7 11 11 10 10 3 14 20 22 21 21 23 18 18 17 16 16 19 18 25 19 14 11 11 9 9 10
2 2 4 3 1 7 18 28 24 3 3 9 14 13 13 11 8 4 7 8 8 8 6 21 22 19 21 22 23 18 18 16 17 18 18 19 26 23 17 13 11 10 11 13
3 4 1 3 4 5 19 14 9 7 4 11 12 11 11 8 8 8 7 7 7 8 8 20 17 20 23 24 23 18 18 18 18 19 19 23 25 21 17 14 12 14 15 16
4 4 3 5 2 6 13 8 12 11 10 13 12 11 10 10 9 7 6 5 6 6 6 12 19 21 23 24 23 18 20 19 18 20 18 25 19 21 21 14 17 17 16 16
6 12 3 1 5 10 11 14 13 16 15 16 11 11 11 9 9 8 7 4 4 5 7 12 20 18 19 24 24 20 23 21 20 20 20 26 20 23 21 15 13 17 19 16
3 5 8 4 8 9 9 15 16 9 11 12 12 11 8 8 9 10 8 9 6 4 6 12 13 18 22 24 24 23 25 23 21 22 20 20 18 21 20 17 15 15 7 9
4 5 2 1 6 5 8 10 13 9 7 7 8 10 8 8 8 10 10 10 10 10 7 8 10 22 25 25 24 25 25 24 22 22 21 20 19 17 19 15 12 5 12 9
Wind_Direction
225 217 222 220 220 240 236 239 248 254 253 247 256 260 265 276 275 259 247 254 268 263 284 241 249 270 262 166 183 194 180 173 162 167 174 185 193 186 214 209 209 212 217 234
227 220 226 232 227 234 244 254 253 261 261 258 265 261 264 256 255 254 266 245 251 258 275 282 236 260 143 149 157 155 162 163 167 167 172 186 189 189 210 211 213 212 223 240
225 235 227 234 234 234 234 236 247 258 268 270 273 271 267 266 271 272 267 275 273 276 272 273 273 176 141 140 151 164 169 171 165 169 172 185 189 195 198 202 180 205 217 239
247 240 240 227 237 230 240 234 243 248 253 259 258 270 253 258 264 259 257 255 249 243 244 244 241 131 140 139 149 163 165 158 164 163 178 171 171 189 193 212 194 164 192 229
242 242 234 239 237 229 244 243 245 244 250 258 253 260 266 275 272 276 269 259 253 253 253 257 221 133 140 138 144 152 151 157 165 168 162 169 186 198 164 174 151 226 164 244
253 249 256 245 241 247 238 243 248 255 254 246 242 244 267 260 271 277 269 265 257 235 241 235 117 130 132 138 141 147 153 164 156 163 165 174 210 95 138 161 143 176 214 243
246 243 251 250 251 231 240 229 234 236 235 242 243 238 256 269 268 269 276 265 257 245 222 114 126 133 137 137 143 150 158 142 159 164 156 170 133 141 148 171 193 225 206 218
276 270 225 239 241 235 224 233 220 219 216 245 248 251 256 253 254 248 285 232 225 129 107 121 131 133 138 141 149 154 152 155 164 158 162 153 154 177 176 165 78 139 175 165
315 278 261 222 243 239 230 226 236 244 234 251 253 235 239 243 246 239 199 199 138 123 121 130 130 139 139 146 156 150 156 161 163 161 162 159 160 138 118 107 140 131 146 140
280 288 280 286 222 245 243 219 226 223 234 239 235 250 274 200 225 212 206 164 134 124 135 138 142 141 143 150 146 155 158 159 160 161 164 161 155 130 134 133 125 136 153 137
269 260 271 288 266 215 230 235 217 237 227 238 247 269 199 172 143 148 170 161 137 141 145 141 145 142 146 148 152 153 159 162 161 168 169 152 147 160 157 161 143 139 150 123
295 279 258 268 273 217 232 224 230 218 219 236 246 248 89 101 138 164 165 144 135 145 144 150 144 149 149 154 152 162 159 161 168 167 160 153 152 148 155 158 145 144 164 166
344 244 260 258 267 259 229 221 233 237 240 218 235 242 164 170 211 178 126 130 140 148 147 143 150 150 154 152 159 160 168 161 164 182 153 150 142 148 160 160 169 171 163 169
347 259 263 253 314 340 284 211 230 227 211 227 227 194 165 175 144 127 121 133 145 144 148 148 155 152 158 155 163 160 171 159 174 183 139 131 134 153 159 156 178 177 171 157
205 269 288 257 256 304 302 284 224 223 203 222 235 162 210 176 160 121 127 141 142 146 155 152 155 155 158 160 157 164 167 164 176 141 127 132 145 158 152 152 167 159 131 131
219 282 301 281 215 273 288 275 266 220 200 221 240 159 125 98 103 124 145 141 151 153 157 154 161 158 159 161 161 164 163 159 171 130 141 145 169 156 150 153 157 156 136 130
280 302 320 249 197 321 276 236 240 211 204 213 227 162 127 144 119 151 155 150 157 155 152 162 162 160 155 162 164 163 156 158 168 133 150 156 148 144 158 159 160 159 157 150
262 285 270 10 61 266 242 244 251 206 197 209 164 164 141 115 91 56 45 28 83 157 159 156 158 154 154 163 155 166 156 163 172 154 154 163 156 150 157 167 168 164 163 163
227 257 275 206 200 294 324 0 337 261 81 14 40 74 62 83 93 55 23 17 2 347 156 154 155 153 154 162 155 167 162 171 174 165 153 161 140 139 138 142 135 153 163 162
174 222 231 62 255 223 20 350 319 298 100 11 40 51 47 23 120 58 357 346 348 334 241 149 153 149 154 162 158 168 165 181 178 167 164 159 148 154 155 149 147 154 148 142
144 231 263 275 225 294 339 330 308 350 79 39 48 43 38 47 49 1 338 332 328 318 299 146 151 154 158 161 161 175 168 187 182 167 162 144 141 149 141 142 147 136 126 120
333 336 338 241 224 340 325 339 52 311 318 46 53 45 45 30 32 24 349 315 316 314 301 151 152 153 159 164 167 183 169 188 183 167 160 138 134 142 136 140 141 132 128 125
11 22 339 7 31 287 299 8 17 354 26 38 35 32 30 30 22 6 332 309 289 275 269 189 157 153 162 169 174 185 169 188 183 167 153 140 157 144 143 152 153 139 143 140
345 7 23 15 357 325 320 6 18 17 7 1 18 23 25 11 10 1 334 322 284 251 237 264 159 157 166 174 178 189 171 190 180 165 157 152 167 148 149 159 180 159 172 170
8 353 346 1 1 352 358 339 336 7 1 356 358 1 25 1 6 354 350 348 336 275 224 246 182 165 169 177 180 188 177 190 177 165 165 158 167 155 158 169 192 176 162 176
1 13 13 47 291 304 318 300 315 347 345 352 343 343 355 21 1 359 353 346 348 328 281 234 247 167 168 178 182 189 182 189 172 164 168 171 177 171 170 176 164 137 171 113